WXM80 ListenWXM80 Stop

You find our weather info also at:

UK Metoffice

WeatherCloud

Weather Underground

Northeastern Weather Network

AWEKAS

Citizen Weather Observer Program (CWOP)

HAMweather, WeatherForYou, PWS Weather


Weather Underground History page Text

Daily Summary for May 12, 2017 Units:  Metric    English   Both
« Previous Day
Next Day »
Daily Weekly Monthly Yearly Custom
  High: Low: Average:
Temperature: 18.3 °C 7.4 °C 12.7 °C
Dew Point: 9.9 °C 5.1 °C 8 °C
Humidity: 95 % 53 % 75 %
Wind Speed: 10 km/h 0 km/h 2.6 km/h
Wind Gust: 16.7 km/h - -
Wind:- - ESE
Pressure: 1017.5 hPa 1015.1 hPa -
Precipitation: 0 mm    
Historical Graphs
 
 
Tabular Data for May 12, 2017
Time Temperature Dew Point Pressure Wind Wind Speed Wind Gust Humidity Rainfall Rate (Hourly)
00:00 8.7 °C 5.3 °C 1016.1 hPa Calm     79 % 0 mm
00:01 8.7 °C 5.2 °C 1016.1 hPa Calm     79 % 0 mm
00:06 8.6 °C 5.2 °C 1016.1 hPa Calm   1.9 km/h 79 % 0 mm
00:11 8.6 °C 5.1 °C 1016.1 hPa Calm     79 % 0 mm
00:16 8.5 °C 5.2 °C 1016.1 hPa Calm     80 % 0 mm
00:21 8.4 °C 5.2 °C 1016.1 hPa Calm     80 % 0 mm
00:26 8.4 °C 5.3 °C 1016.1 hPa Calm     81 % 0 mm
00:31 8.3 °C 5.3 °C 1016.1 hPa Calm     81 % 0 mm
00:32 8.3 °C 5.3 °C 1016.1 hPa Calm     81 % 0 mm
00:37 8.3 °C 5.2 °C 1016.1 hPa Calm     81 % 0 mm
00:42 8.2 °C 5.3 °C 1016.1 hPa Calm   1.6 km/h 82 % 0 mm
00:47 8.2 °C 5.4 °C 1016.5 hPa Calm     83 % 0 mm
00:52 8.1 °C 5.4 °C 1016.1 hPa SE 0.2 km/h 3.7 km/h 83 % 0 mm
00:57 8.1 °C 5.3 °C 1016.5 hPa SW 2.4 km/h 3.7 km/h 83 % 0 mm
01:02 8.1 °C 5.3 °C 1016.5 hPa SW 0.5 km/h 1.9 km/h 83 % 0 mm
01:07 8 °C 5.4 °C 1016.1 hPa Calm     84 % 0 mm
01:12 8 °C 5.4 °C 1016.1 hPa Calm     84 % 0 mm
01:17 7.9 °C 5.4 °C 1016.1 hPa Calm     84 % 0 mm
01:22 7.9 °C 5.5 °C 1016.1 hPa Calm     85 % 0 mm
01:27 7.9 °C 5.5 °C 1016.1 hPa Calm     85 % 0 mm
01:32 7.8 °C 5.4 °C 1016.1 hPa Calm   3.7 km/h 85 % 0 mm
01:37 7.8 °C 5.4 °C 1016.1 hPa Calm     85 % 0 mm
01:42 7.8 °C 5.4 °C 1016.1 hPa Calm   1.9 km/h 85 % 0 mm
01:43 7.8 °C 5.4 °C 1016.1 hPa Calm   1.9 km/h 85 % 0 mm
01:48 7.7 °C 5.3 °C 1016.1 hPa SW 0.2 km/h 1.9 km/h 85 % 0 mm
01:53 7.7 °C 5.5 °C 1016.5 hPa Calm     86 % 0 mm
01:58 7.7 °C 5.5 °C 1016.5 hPa Calm     86 % 0 mm
02:03 7.7 °C 5.5 °C 1016.5 hPa Calm     86 % 0 mm
02:08 7.7 °C 5.7 °C 1016.5 hPa Calm     87 % 0 mm
02:13 7.7 °C 5.7 °C 1016.1 hPa Calm     87 % 0 mm
02:18 7.7 °C 5.7 °C 1016.1 hPa Calm     87 % 0 mm
02:23 7.7 °C 5.7 °C 1016.1 hPa Calm     87 % 0 mm
02:28 7.7 °C 5.5 °C 1016.1 hPa Calm     86 % 0 mm
02:33 7.7 °C 5.5 °C 1016.1 hPa Calm     86 % 0 mm
02:38 7.6 °C 5.4 °C 1016.5 hPa Calm     86 % 0 mm
02:43 7.6 °C 5.4 °C 1016.5 hPa Calm     86 % 0 mm
02:48 7.6 °C 5.6 °C 1016.5 hPa Calm     87 % 0 mm
02:53 7.6 °C 5.6 °C 1016.5 hPa Calm     87 % 0 mm
02:58 7.5 °C 5.5 °C 1016.5 hPa Calm     87 % 0 mm
03:03 7.5 °C 5.5 °C 1016.5 hPa Calm     87 % 0 mm
03:08 7.5 °C 5.7 °C 1016.5 hPa Calm     88 % 0 mm
03:13 7.4 °C 5.6 °C 1016.1 hPa Calm     88 % 0 mm
03:18 7.5 °C 5.8 °C 1016.5 hPa Calm     89 % 0 mm
03:23 7.5 °C 5.8 °C 1016.5 hPa Calm     89 % 0 mm
03:28 7.5 °C 5.9 °C 1016.5 hPa Calm     90 % 0 mm
03:33 7.6 °C 6 °C 1016.5 hPa Calm     90 % 0 mm
03:38 7.6 °C 6 °C 1016.5 hPa Calm     90 % 0 mm
03:43 7.6 °C 6 °C 1016.5 hPa Calm     90 % 0 mm
03:48 7.6 °C 6.1 °C 1016.1 hPa Calm     90 % 0 mm
03:53 7.7 °C 6.1 °C 1016.5 hPa Calm     90 % 0 mm
03:58 7.7 °C 6.3 °C 1016.1 hPa Calm     91 % 0 mm
04:04 7.7 °C 6.3 °C 1016.1 hPa Calm     91 % 0 mm
04:09 7.8 °C 6.4 °C 1016.1 hPa Calm     91 % 0 mm
04:14 7.8 °C 6.4 °C 1016.1 hPa Calm     91 % 0 mm
04:19 7.9 °C 6.7 °C 1016.1 hPa Calm     92 % 0 mm
04:24 8 °C 6.8 °C 1016.1 hPa Calm     92 % 0 mm
04:29 8.1 °C 6.8 °C 1016.1 hPa Calm     92 % 0 mm
04:34 8.1 °C 6.9 °C 1016.1 hPa Calm     92 % 0 mm
04:39 8.2 °C 6.9 °C 1016.1 hPa Calm     92 % 0 mm
04:44 8.2 °C 7 °C 1016.1 hPa Calm     92 % 0 mm
04:49 8.3 °C 7.1 °C 1016.1 hPa Calm     92 % 0 mm
04:54 8.4 °C 7.2 °C 1016.1 hPa Calm     92 % 0 mm
04:59 8.4 °C 7.2 °C 1016.1 hPa Calm     92 % 0 mm
05:04 8.4 °C 7.2 °C 1015.8 hPa Calm     92 % 0 mm
05:09 8.5 °C 7.3 °C 1016.1 hPa Calm     92 % 0 mm
05:14 8.5 °C 7.3 °C 1016.1 hPa Calm     92 % 0 mm
05:19 8.5 °C 7.3 °C 1016.5 hPa Calm     92 % 0 mm
05:24 8.5 °C 7.1 °C 1016.5 hPa Calm     91 % 0 mm
05:29 8.5 °C 7.1 °C 1016.1 hPa Calm     91 % 0 mm
05:33 8.5 °C 7.1 °C 1016.5 hPa Calm     91 % 0 mm
05:38 8.5 °C 7.3 °C 1016.5 hPa NW 0.2 km/h 3.7 km/h 92 % 0 mm
05:43 8.6 °C 7.3 °C 1016.5 hPa Calm     92 % 0 mm
05:48 8.6 °C 7.4 °C 1016.5 hPa Calm     92 % 0 mm
05:53 8.6 °C 7.4 °C 1016.5 hPa Calm     92 % 0 mm
05:58 8.6 °C 7.4 °C 1016.5 hPa NW 0.3 km/h 1.9 km/h 92 % 0 mm
06:03 8.6 °C 7.4 °C 1016.5 hPa Calm   1.9 km/h 92 % 0 mm
06:08 8.7 °C 7.4 °C 1016.5 hPa Calm   1.9 km/h 92 % 0 mm
06:13 8.7 °C 7.4 °C 1016.8 hPa NW 0.2 km/h   92 % 0 mm
06:18 8.7 °C 7.5 °C 1016.8 hPa NNE 1.6 km/h 5.6 km/h 92 % 0 mm
06:24 8.8 °C 7.8 °C 1016.8 hPa NNE 3.4 km/h 5.6 km/h 93 % 0 mm
06:29 8.9 °C 7.8 °C 1016.8 hPa NNE 2.6 km/h 5.6 km/h 93 % 0 mm
06:34 9 °C 7.9 °C 1017.2 hPa NNE 1.4 km/h 5.6 km/h 93 % 0 mm
06:39 9.1 °C 8.2 °C 1017.2 hPa NNE 2.3 km/h 9.3 km/h 94 % 0 mm
06:44 9.2 °C 8.3 °C 1017.2 hPa NNE 2.6 km/h 5.6 km/h 94 % 0 mm
06:49 9.3 °C 8.4 °C 1017.2 hPa NNE 4.3 km/h 7.4 km/h 94 % 0 mm
06:54 9.4 °C 8.5 °C 1017.2 hPa NNE 1.4 km/h 6.4 km/h 94 % 0 mm
06:59 9.6 °C 8.6 °C 1017.2 hPa NNE 0.5 km/h 3.7 km/h 94 % 0 mm
07:04 9.7 °C 8.7 °C 1017.2 hPa NNE 0.2 km/h 1.9 km/h 94 % 0 mm
07:09 9.9 °C 8.9 °C 1017.5 hPa ENE 0.8 km/h 5.6 km/h 94 % 0 mm
07:14 10.2 °C 9.4 °C 1017.2 hPa NE 0.6 km/h 1.9 km/h 95 % 0 mm
07:19 10.4 °C 9.7 °C 1017.5 hPa North 2.3 km/h 5.6 km/h 95 % 0 mm
07:24 10.6 °C 9.7 °C 1017.5 hPa NE 2.4 km/h 5.6 km/h 94 % 0 mm
07:29 10.8 °C 9.9 °C 1017.2 hPa NNE 2.7 km/h 3.7 km/h 94 % 0 mm
07:34 11 °C 9.9 °C 1017.2 hPa ENE 8 km/h 11.3 km/h 93 % 0 mm
07:39 11.2 °C 9.7 °C 1017.2 hPa NE 5.5 km/h 8 km/h 90 % 0 mm
07:44 11.6 °C 9.4 °C 1017.2 hPa ENE 8.2 km/h 11.3 km/h 87 % 0 mm
07:49 11.8 °C 9.3 °C 1017.2 hPa ENE 4 km/h 7.4 km/h 85 % 0 mm
07:54 11.9 °C 9.2 °C 1017.2 hPa ENE 5.3 km/h 13 km/h 83 % 0 mm
07:59 11.9 °C 8.9 °C 1017.2 hPa ENE 7.1 km/h 13 km/h 82 % 0 mm
08:04 11.8 °C 9.1 °C 1017.2 hPa ENE 4.8 km/h 7.4 km/h 83 % 0 mm
08:09 11.8 °C 9.1 °C 1017.2 hPa ENE 7.4 km/h 7.4 km/h 83 % 0 mm
08:14 11.8 °C 9.1 °C 1017.2 hPa ENE 5 km/h 14.8 km/h 83 % 0 mm
08:20 11.9 °C 8.8 °C 1017.2 hPa NE 6 km/h 11.3 km/h 81 % 0 mm
08:25 12 °C 8.7 °C 1017.5 hPa ENE 3.9 km/h 5.6 km/h 80 % 0 mm
08:30 12.1 °C 8.8 °C 1017.5 hPa NE 5.3 km/h 11.1 km/h 80 % 0 mm
08:35 12.1 °C 8.6 °C 1017.5 hPa ENE 6 km/h 8 km/h 79 % 0 mm
08:40 12.1 °C 8.3 °C 1017.5 hPa ENE 6.3 km/h 13 km/h 78 % 0 mm
08:45 12.1 °C 8.6 °C 1017.5 hPa ENE 4 km/h 14.8 km/h 79 % 0 mm
08:50 12.3 °C 8.9 °C 1017.2 hPa ENE 10 km/h 14.8 km/h 80 % 0 mm
08:55 12.3 °C 8.8 °C 1017.5 hPa ENE 2.6 km/h 11.1 km/h 79 % 0 mm
09:00 12.6 °C 9.2 °C 1017.5 hPa ENE 6.1 km/h 7.4 km/h 80 % 0 mm
09:05 12.8 °C 9.1 °C 1017.5 hPa ENE 1.8 km/h 13 km/h 78 % 0 mm
09:10 12.9 °C 9 °C 1017.5 hPa East 7.2 km/h 13 km/h 77 % 0 mm
09:15 13.1 °C 9.5 °C 1017.2 hPa ENE 3.5 km/h 5.6 km/h 79 % 0 mm
09:20 13.2 °C 9 °C 1017.2 hPa NE 4.8 km/h 13 km/h 76 % 0 mm
09:25 13.3 °C 9.1 °C 1017.2 hPa ENE 3.4 km/h 11.1 km/h 76 % 0 mm
09:30 13.6 °C 9.4 °C 1017.5 hPa NNE 3.9 km/h 11.3 km/h 76 % 0 mm
09:35 13.7 °C 9.4 °C 1017.5 hPa ENE 3.5 km/h 8 km/h 75 % 0 mm
09:40 14 °C 9.2 °C 1017.5 hPa ENE 3.4 km/h 7.4 km/h 73 % 0 mm
09:45 14.3 °C 9.3 °C 1017.5 hPa ENE 1.6 km/h 5.6 km/h 72 % 0 mm
09:50 14.4 °C 9.1 °C 1017.5 hPa ENE 1.6 km/h 8 km/h 70 % 0 mm
09:55 14.7 °C 9.9 °C 1017.5 hPa ENE 1.6 km/h 11.3 km/h 73 % 0 mm
10:01 15 °C 9.3 °C 1017.5 hPa NE 5.3 km/h 7.4 km/h 69 % 0 mm
10:06 15.1 °C 9 °C 1017.5 hPa ENE 2.9 km/h 5.6 km/h 67 % 0 mm
10:11 15.1 °C 9.2 °C 1017.5 hPa East 6 km/h 9.7 km/h 68 % 0 mm
10:16 15.1 °C 9 °C 1017.5 hPa ENE 3.9 km/h 5.6 km/h 67 % 0 mm
10:21 15.3 °C 8.7 °C 1017.5 hPa NE 5 km/h 5.6 km/h 65 % 0 mm
10:26 15.2 °C 8.7 °C 1017.2 hPa ENE 5.3 km/h 9.3 km/h 65 % 0 mm
10:31 15.2 °C 9.6 °C 1017.2 hPa ENE 2.3 km/h 5.6 km/h 69 % 0 mm
10:36 15.6 °C 9 °C 1017.2 hPa ENE 8 km/h 13 km/h 65 % 0 mm
10:41 15.6 °C 9.2 °C 1017.2 hPa ENE 3.9 km/h 5.6 km/h 66 % 0 mm
10:46 15.7 °C 9.6 °C 1017.2 hPa East 6.1 km/h 9.3 km/h 67 % 0 mm
10:51 15.9 °C 9.8 °C 1017.2 hPa ENE 2.9 km/h 6.4 km/h 67 % 0 mm
10:56 16.2 °C 9.6 °C 1017.2 hPa ENE 6.1 km/h 11.3 km/h 65 % 0 mm
11:01 16.4 °C 9.1 °C 1016.8 hPa ENE 3.7 km/h 7.4 km/h 62 % 0 mm
11:06 16.6 °C 8.8 °C 1016.8 hPa ENE 4.5 km/h 7.4 km/h 60 % 0 mm
11:11 16.8 °C 9.2 °C 1016.8 hPa East 4.3 km/h 7.4 km/h 61 % 0 mm
11:16 16.9 °C 9.4 °C 1016.8 hPa East 4 km/h 8 km/h 61 % 0 mm
11:21 16.9 °C 8.9 °C 1017.2 hPa East 5.1 km/h 8 km/h 59 % 0 mm
11:26 16.9 °C 9.1 °C 1017.2 hPa East 6.3 km/h 9.3 km/h 60 % 0 mm
11:31 17 °C 8.9 °C 1016.8 hPa East 5.8 km/h 5.8 km/h 59 % 0 mm
11:36 16.9 °C 8.6 °C 1017.2 hPa ENE 5.1 km/h 11.3 km/h 58 % 0 mm
11:42 17.1 °C 9.3 °C 1016.8 hPa East 5.8 km/h 7.4 km/h 60 % 0 mm
11:47 17.2 °C 8.4 °C 1016.8 hPa East 6 km/h 9.7 km/h 56 % 0 mm
11:51 17.4 °C 8.6 °C 1016.8 hPa East 5.8 km/h 7.4 km/h 56 % 0 mm
11:57 17.6 °C 8.7 °C 1016.8 hPa ESE 6 km/h 9.3 km/h 56 % 0 mm
12:02 17.3 °C 9 °C 1016.8 hPa East 5 km/h 7.4 km/h 58 % 0 mm
12:07 17.6 °C 8.9 °C 1016.8 hPa East 5.6 km/h 9.3 km/h 57 % 0 mm
12:12 17.5 °C 8.9 °C 1016.8 hPa East 5.6 km/h 11.1 km/h 57 % 0 mm
12:17 17.5 °C 8.6 °C 1016.8 hPa ENE 6.6 km/h 9.7 km/h 56 % 0 mm
12:22 17.6 °C 8.7 °C 1016.5 hPa East 4.3 km/h 7.4 km/h 56 % 0 mm
12:27 17.7 °C 9.1 °C 1016.5 hPa East 7.9 km/h 11.1 km/h 57 % 0 mm
12:32 17.7 °C 8.8 °C 1016.5 hPa ESE 6.3 km/h 7.4 km/h 56 % 0 mm
12:34 17.8 °C 9.9 °C 1016.5 hPa East 5 km/h 8 km/h 60 % 0 mm
12:39 17.9 °C 9.3 °C 1016.5 hPa ESE 6.8 km/h 8 km/h 57 % 0 mm
12:44 17.9 °C 9 °C 1016.5 hPa East 6.3 km/h 9.3 km/h 56 % 0 mm
12:49 17.8 °C 8.6 °C 1016.5 hPa ENE 3.5 km/h 9.3 km/h 55 % 0 mm
12:54 17.8 °C 9.2 °C 1016.5 hPa East 6.4 km/h 9.3 km/h 57 % 0 mm
12:59 17.9 °C 8.5 °C 1016.5 hPa East 5.3 km/h 7.4 km/h 54 % 0 mm
13:04 17.8 °C 8.9 °C 1016.5 hPa ESE 4.3 km/h 9.3 km/h 56 % 0 mm
13:09 17.9 °C 8.5 °C 1016.1 hPa East 6 km/h 11.1 km/h 54 % 0 mm
13:14 18 °C 8.8 °C 1016.1 hPa East 6 km/h 9.7 km/h 55 % 0 mm
13:19 18 °C 8.8 °C 1016.1 hPa East 5 km/h 7.4 km/h 55 % 0 mm
13:24 18.2 °C 9.3 °C 1016.1 hPa ENE 4.7 km/h 7.4 km/h 56 % 0 mm
13:29 18.3 °C 9.4 °C 1016.1 hPa East 6 km/h 9.7 km/h 56 % 0 mm
13:34 18.2 °C 9 °C 1016.1 hPa East 6.8 km/h 9.7 km/h 55 % 0 mm
13:40 18.2 °C 8.7 °C 1016.1 hPa East 6.4 km/h 8 km/h 54 % 0 mm
13:45 18.2 °C 9 °C 1016.1 hPa East 5.6 km/h 9.3 km/h 55 % 0 mm
13:50 18.2 °C 9.3 °C 1016.1 hPa ESE 6.6 km/h 11.1 km/h 56 % 0 mm
13:55 18.2 °C 9.2 °C 1015.8 hPa East 6.3 km/h 8 km/h 56 % 0 mm
14:00 18.2 °C 9.2 °C 1015.8 hPa East 4.8 km/h 11.1 km/h 56 % 0 mm
14:05 18.2 °C 9.3 °C 1015.8 hPa East 5.1 km/h 9.3 km/h 56 % 0 mm
14:10 18.1 °C 9.4 °C 1015.8 hPa East 4.8 km/h 7.4 km/h 57 % 0 mm
14:15 18.2 °C 8.7 °C 1015.8 hPa East 4.5 km/h 7.4 km/h 54 % 0 mm
14:20 18.2 °C 8.4 °C 1015.8 hPa ENE 3.4 km/h 5.6 km/h 53 % 0 mm
14:25 18.1 °C 8.7 °C 1015.8 hPa ENE 3.4 km/h 5.6 km/h 54 % 0 mm
14:30 18.2 °C 8.7 °C 1015.8 hPa East 4.2 km/h 7.4 km/h 54 % 0 mm
14:35 18.2 °C 8.4 °C 1015.8 hPa ENE 3.2 km/h 5.6 km/h 53 % 0 mm
14:40 18.2 °C 8.7 °C 1015.5 hPa ENE 3.4 km/h 5.6 km/h 54 % 0 mm
14:45 18 °C 8.6 °C 1015.5 hPa NE 3.9 km/h 7.4 km/h 54 % 0 mm
14:50 17.8 °C 8.3 °C 1015.5 hPa ENE 3.4 km/h 5.6 km/h 54 % 0 mm
14:55 17.6 °C 8.1 °C 1015.5 hPa ENE 3.4 km/h 5.6 km/h 54 % 0 mm
14:56 17.6 °C 8.7 °C 1015.5 hPa ENE 3.4 km/h 5.6 km/h 56 % 0 mm
15:01 17.7 °C 8.2 °C 1015.5 hPa ENE 3.2 km/h 5.6 km/h 54 % 0 mm
15:06 17.7 °C 8.3 °C 1015.1 hPa ENE 3.4 km/h 5.6 km/h 54 % 0 mm
15:11 17.9 °C 8.2 °C 1015.5 hPa ENE 2.6 km/h 5.6 km/h 53 % 0 mm
15:16 18.1 °C 8.9 °C 1015.5 hPa NE 4.2 km/h 8 km/h 55 % 0 mm
15:21 18.1 °C 8.3 °C 1015.1 hPa ENE 3.2 km/h 12.9 km/h 53 % 0 mm
15:26 18.1 °C 8.7 °C 1015.5 hPa ENE 3.2 km/h 12.9 km/h 54 % 0 mm
15:31 18.1 °C 8.6 °C 1015.5 hPa East 9.2 km/h 16.7 km/h 54 % 0 mm
15:36 17.7 °C 8.3 °C 1015.5 hPa ENE 9.7 km/h 14.5 km/h 54 % 0 mm
15:41 17.4 °C 9.1 °C 1015.1 hPa ENE 2.7 km/h 5.6 km/h 58 % 0 mm
15:46 17.2 °C 8.1 °C 1015.1 hPa ENE 1.6 km/h 6.4 km/h 55 % 0 mm
15:51 16.9 °C 8.1 °C 1015.1 hPa ENE 1.6 km/h 8 km/h 56 % 0 mm
15:56 16.7 °C 8.6 °C 1015.1 hPa ENE 6.1 km/h 6.4 km/h 59 % 0 mm
16:01 16.7 °C 8.9 °C 1015.1 hPa ENE 3.2 km/h 7.4 km/h 60 % 0 mm
16:06 16.9 °C 8.8 °C 1015.1 hPa ENE 1.6 km/h 3.7 km/h 59 % 0 mm
16:11 17.1 °C 9.2 °C 1015.1 hPa ENE 1.1 km/h 3.7 km/h 60 % 0 mm
16:16 17.1 °C 9.8 °C 1015.1 hPa NE 1.6 km/h 3.7 km/h 62 % 0 mm
16:21 17.2 °C 9.3 °C 1015.1 hPa ENE 1.6 km/h 8 km/h 60 % 0 mm
16:26 17.2 °C 9.1 °C 1015.5 hPa ENE 1.6 km/h 11.3 km/h 59 % 0 mm
16:31 17.2 °C 9.1 °C 1015.5 hPa Calm   1.6 km/h 59 % 0 mm
16:36 17 °C 9.2 °C 1015.5 hPa Calm   1.6 km/h 60 % 0 mm
16:41 16.9 °C 9.1 °C 1015.5 hPa Calm   3.2 km/h 60 % 0 mm
16:46 16.9 °C 8.6 °C 1015.5 hPa Calm   3.2 km/h 58 % 0 mm
16:51 16.9 °C 8.8 °C 1015.5 hPa ENE 1.6 km/h 4.8 km/h 59 % 0 mm
16:56 16.9 °C 9.1 °C 1015.5 hPa Calm   3.2 km/h 60 % 0 mm
17:01 16.9 °C 8.6 °C 1015.5 hPa SE 8.7 km/h 13 km/h 58 % 0 mm
17:06 17 °C 8.4 °C 1015.1 hPa SSE 6 km/h 11.1 km/h 57 % 0 mm
17:11 16.8 °C 7.9 °C 1015.1 hPa SE 1.3 km/h 16.7 km/h 56 % 0 mm
17:16 16.5 °C 8.2 °C 1015.1 hPa SSE 7.6 km/h 13 km/h 58 % 0 mm
17:21 16.3 °C 8.3 °C 1015.1 hPa SE 0.2 km/h 5.6 km/h 59 % 0 mm
17:26 16.1 °C 8.1 °C 1015.1 hPa SSE 6 km/h 9.3 km/h 59 % 0 mm
17:31 15.9 °C 8.1 °C 1015.1 hPa SE 1.1 km/h 5.6 km/h 60 % 0 mm
17:36 15.8 °C 8.3 °C 1015.1 hPa South 2.3 km/h 5.6 km/h 61 % 0 mm
17:41 15.8 °C 8.3 °C 1015.1 hPa SSE 2.6 km/h 5.6 km/h 61 % 0 mm
17:46 15.7 °C 8.2 °C 1015.1 hPa SE 8.7 km/h 13 km/h 61 % 0 mm
17:51 15.6 °C 8.6 °C 1015.1 hPa WSW 2.9 km/h 5.6 km/h 63 % 0 mm
17:54 15.6 °C 8.6 °C 1015.1 hPa WSW 1.4 km/h 4.8 km/h 63 % 0 mm
17:59 15.6 °C 8.3 °C 1015.1 hPa SE 3.5 km/h 7.4 km/h 62 % 0 mm
18:04 15.6 °C 8.3 °C 1015.5 hPa SE 2.6 km/h 9.3 km/h 62 % 0 mm
18:06 15.6 °C 8.3 °C 1015.5 hPa SSE 0.3 km/h 5.6 km/h 62 % 0 mm
18:11 15.5 °C 8.5 °C 1015.5 hPa SSW 2.9 km/h 6.4 km/h 63 % 0 mm
18:16 15.4 °C 8.4 °C 1015.5 hPa SSW 1.4 km/h 3.7 km/h 63 % 0 mm
18:21 15.3 °C 8.3 °C 1015.5 hPa South 2.9 km/h 9.3 km/h 63 % 0 mm
18:22 15.3 °C 8.3 °C 1015.1 hPa South 1.4 km/h 1.9 km/h 63 % 0 mm
18:28 15.1 °C 8.3 °C 1015.5 hPa SSE 6 km/h 13 km/h 64 % 0 mm
18:33 14.9 °C 8.4 °C 1015.5 hPa SE 7.9 km/h 13 km/h 65 % 0 mm
18:38 14.7 °C 8.4 °C 1015.5 hPa South 4.3 km/h 9.3 km/h 66 % 0 mm
18:43 14.5 °C 8.4 °C 1015.5 hPa SSE 0.8 km/h 5.6 km/h 67 % 0 mm
18:48 14.3 °C 8.3 °C 1015.5 hPa SSE 1.9 km/h 7.4 km/h 67 % 0 mm
18:53 14.2 °C 8.3 °C 1015.5 hPa SSE 4.8 km/h 9.3 km/h 68 % 0 mm
18:58 13.9 °C 8.1 °C 1015.5 hPa SSE 1.1 km/h 5.6 km/h 68 % 0 mm
19:03 13.8 °C 8.2 °C 1015.5 hPa SSE 3.5 km/h 9.7 km/h 69 % 0 mm
19:08 13.6 °C 8 °C 1015.5 hPa SE 1.3 km/h 5.6 km/h 69 % 0 mm
19:13 13.5 °C 8.1 °C 1015.5 hPa SE 4.5 km/h 13 km/h 70 % 0 mm
19:18 13.3 °C 8.2 °C 1015.8 hPa SSE 0.8 km/h 5.6 km/h 71 % 0 mm
19:23 13.2 °C 8.1 °C 1015.5 hPa ESE 5.5 km/h 9.3 km/h 71 % 0 mm
19:28 13.1 °C 8.1 °C 1015.5 hPa SE 5 km/h 9.7 km/h 72 % 0 mm
19:33 12.9 °C 8 °C 1015.8 hPa SSE 2.9 km/h 7.4 km/h 72 % 0 mm
19:38 12.9 °C 8.2 °C 1015.8 hPa SE 3.7 km/h 7.4 km/h 73 % 0 mm
19:43 12.8 °C 8.1 °C 1015.8 hPa SE 5.6 km/h 11.1 km/h 73 % 0 mm
19:48 12.6 °C 7.9 °C 1015.8 hPa SSE 7.6 km/h 14.8 km/h 73 % 0 mm
19:53 12.4 °C 7.9 °C 1015.8 hPa SE 5.3 km/h 9.3 km/h 74 % 0 mm
19:58 12.4 °C 8.1 °C 1016.1 hPa SSE 4.3 km/h 12.9 km/h 75 % 0 mm
20:03 12.3 °C 7.9 °C 1015.8 hPa SSE 6.3 km/h 9.3 km/h 75 % 0 mm
20:08 12.2 °C 8.1 °C 1015.8 hPa SSE 3.1 km/h 7.4 km/h 76 % 0 mm
20:13 12.1 °C 7.9 °C 1016.1 hPa SE 3.7 km/h 14.8 km/h 76 % 0 mm
20:18 11.9 °C 8.1 °C 1015.8 hPa SE 3.2 km/h 6.4 km/h 77 % 0 mm
20:23 11.9 °C 8.1 °C 1016.1 hPa SE 0.3 km/h 3.2 km/h 77 % 0 mm
20:28 11.8 °C 8.1 °C 1015.8 hPa SE 0.3 km/h 5.6 km/h 78 % 0 mm
20:33 11.8 °C 8.1 °C 1016.1 hPa SE 0.3 km/h 1.6 km/h 78 % 0 mm
20:38 11.8 °C 8.1 °C 1015.8 hPa SE 3.9 km/h 5.6 km/h 78 % 0 mm
20:43 11.7 °C 8.2 °C 1015.8 hPa SE 2.1 km/h 6.4 km/h 79 % 0 mm
20:48 11.6 °C 8.1 °C 1015.8 hPa SSE 4.2 km/h 9.3 km/h 79 % 0 mm
20:53 11.6 °C 8.1 °C 1015.8 hPa SE 2.7 km/h 5.6 km/h 79 % 0 mm
20:58 11.6 °C 8.2 °C 1015.8 hPa Calm     80 % 0 mm
21:03 11.6 °C 8.4 °C 1015.8 hPa Calm   3.7 km/h 81 % 0 mm
21:08 11.5 °C 8.3 °C 1015.8 hPa SE 0.3 km/h 5.6 km/h 81 % 0 mm
21:13 11.5 °C 8.3 °C 1015.8 hPa SE 3.5 km/h 5.6 km/h 81 % 0 mm
21:18 11.5 °C 8.3 °C 1015.8 hPa SSE 0.8 km/h 3.7 km/h 81 % 0 mm
21:23 11.5 °C 8.3 °C 1015.8 hPa SE 1.9 km/h 4.8 km/h 81 % 0 mm
21:28 11.5 °C 8.3 °C 1015.8 hPa SE 2.6 km/h 5.6 km/h 81 % 0 mm
21:34 11.5 °C 8.3 °C 1015.8 hPa SE 0.6 km/h 3.7 km/h 81 % 0 mm
21:39 11.5 °C 8.3 °C 1015.8 hPa SE 2.6 km/h 5.6 km/h 81 % 0 mm
21:44 11.5 °C 8.3 °C 1015.8 hPa SE 1.6 km/h 9.7 km/h 81 % 0 mm
21:49 11.5 °C 8.6 °C 1015.8 hPa SE 0.5 km/h 7.4 km/h 82 % 0 mm
21:54 11.4 °C 8.5 °C 1015.8 hPa Calm   1.9 km/h 82 % 0 mm
21:59 11.4 °C 8.5 °C 1015.8 hPa SE 1.3 km/h   82 % 0 mm
22:04 11.4 °C 8.7 °C 1015.5 hPa Calm   1.9 km/h 83 % 0 mm
22:09 11.4 °C 8.4 °C 1015.8 hPa Calm     82 % 0 mm
22:14 11.3 °C 8.4 °C 1015.8 hPa Calm   1.9 km/h 82 % 0 mm
22:19 11.3 °C 8.6 °C 1015.8 hPa Calm     83 % 0 mm
22:24 11.3 °C 8.6 °C 1015.8 hPa Calm   1.9 km/h 83 % 0 mm
22:29 11.3 °C 8.5 °C 1015.8 hPa SSE 0.3 km/h 5.6 km/h 83 % 0 mm
22:34 11.2 °C 8.4 °C 1015.8 hPa SE 0.2 km/h 1.9 km/h 83 % 0 mm
22:39 11.2 °C 8.6 °C 1015.8 hPa Calm     84 % 0 mm
22:44 11.2 °C 8.6 °C 1015.8 hPa Calm     84 % 0 mm
22:49 11.2 °C 8.6 °C 1015.8 hPa SE 0.2 km/h 1.6 km/h 84 % 0 mm
22:54 11.1 °C 8.5 °C 1015.8 hPa Calm     84 % 0 mm
22:59 11.1 °C 8.5 °C 1015.8 hPa SE 1.6 km/h 3.2 km/h 84 % 0 mm
23:04 11.1 °C 8.5 °C 1015.8 hPa SE 0.2 km/h 5.6 km/h 84 % 0 mm
23:09 11.1 °C 8.5 °C 1015.8 hPa SE 1.1 km/h 5.6 km/h 84 % 0 mm
23:14 11.1 °C 8.5 °C 1015.5 hPa SE 0.2 km/h 1.9 km/h 84 % 0 mm
23:19 11.1 °C 8.5 °C 1015.5 hPa Calm     84 % 0 mm
23:24 11.1 °C 8.5 °C 1015.5 hPa Calm     84 % 0 mm
23:29 11.2 °C 8.6 °C 1015.5 hPa Calm     84 % 0 mm
23:34 11.2 °C 8.6 °C 1015.5 hPa SE 0.2 km/h 5.6 km/h 84 % 0 mm
23:39 11.2 °C 8.6 °C 1015.5 hPa Calm   1.6 km/h 84 % 0 mm
23:44 11.2 °C 8.6 °C 1015.5 hPa Calm     84 % 0 mm
23:49 11.2 °C 8.6 °C 1015.5 hPa SE 0.6 km/h 1.9 km/h 84 % 0 mm
23:54 11.2 °C 8.6 °C 1015.5 hPa SE 0.3 km/h 1.9 km/h 84 % 0 mm
23:59 11.2 °C 8.4 °C 1015.5 hPa Calm   5.6 km/h 83 % 0 mm
Crab Meadow Weather
Compliments of Weather Underground - 3 mb

Script developed by  Jim McMurry - jmcmurry@mwt.net Adapted for the template by  Wim van der Kuil - Leuven-Template.eu

Weather Terms: Lake Effect Snow Warning - Lake effect snowfall of 6 inches or more in 12 hours or less, or 8 inches or more in 24 hours or less.